Home > Weather > Al Ain > Past weeks

Flag for United Arab Emirates Weather for the Past 2 Weeks in Al Ain, Abu Dhabi, United Arab Emirates

Now
64 °F

Clear.


Feels Like: 64 °F
Forecast: 51 / 77 °F
Wind: 6 mph from East

Location: Al Ain International Airport

Current Time: Feb 9, 2016 at 4:04:19 AM

Latest Report: Feb 9, 2016 at 3:00 AM


Visibility: 10 mi

Pressure: 30.04 "Hg

Humidity: 26%

Dew point: 28 °F

Location of Al AinLocation

Historic Weather in Al Ain — Graph

°F

Al Ain Temperature Yesterday

Maximum temperature yesterday: 81 °F (at 4:00 PM)
Minimum temperature yesterday: 57 °F (at 3:00 AM)
Average temperature yesterday: 68 °F

High & Low Weather Summary for the Past Weeks

 TemperatureHumidityPressure
High82 °F (Jan 27, 3:00 PM)94% (Feb 2, 5:00 AM)30.27 "Hg (Feb 2, 5:00 AM)
Low50 °F (Feb 2, 7:00 AM)13% (Feb 5, 5:00 PM)29.92 "Hg (Jan 27, 4:00 PM)
Average65 °F52%30.11 "Hg
* Reported Jan 25 2:00 AM — Feb 9 2:00 AM, Al Ain, Weather by CustomWeather, © 2016

Note: Actual official high and low records may vary slightly from our data, if they occured in-between our weather recording intervals... More about our weather records

Advertising

Al Ain Weather History for the Previous 24 Hours

 ConditionsComfort  
Time TempWeatherWind HumidityBarometerVisibility
2:00 AM
Tue, Feb 9
64 °FClear.6 mph26%30.04 "Hg10 mi
1:00 AM64 °FClear.10 mph24%30.07 "Hg10 mi
12:00 AM63 °FClear.7 mph24%30.07 "Hg10 mi
11:00 PM
Mon, Feb 8
64 °FClear.6 mph22%30.07 "Hg10 mi
10:00 PM66 °FClear.7 mph22%30.07 "Hg10 mi
9:00 PM70 °FClear.6 mph18%30.07 "Hg10 mi
8:00 PM72 °FClear.6 mph17%30.07 "Hg10 mi
7:00 PM75 °FClear.3 mph15%30.04 "Hg10 mi
6:00 PM79 °FSunny.6 mph13%30.04 "Hg10 mi
5:00 PM81 °FPassing clouds.8 mph13%30.01 "HgN/A
4:00 PM81 °FPassing clouds.7 mph14%30.01 "HgN/A
3:00 PM79 °FPassing clouds.7 mph15%30.01 "HgN/A
2:00 PM79 °FSunny.3 mph16%30.04 "Hg10 mi
1:00 PM79 °FSunny.5 mph16%30.07 "Hg10 mi
12:00 PM77 °FSunny.6 mph17%30.09 "Hg10 mi
11:00 AM75 °FSunny.3 mph21%30.12 "Hg10 mi
10:00 AM72 °FSunny.6 mph27%30.12 "Hg10 mi
9:00 AM66 °FSunny.8 mph32%30.09 "Hg10 mi
8:00 AM61 °FSunny.9 mph39%30.07 "Hg10 mi
7:00 AM57 °FSunny.9 mph55%30.07 "Hg10 mi
6:00 AM57 °FClear.9 mph63%30.04 "Hg10 mi
5:00 AM57 °FHaze.6 mph72%30.04 "Hg2 mi
4:00 AM57 °FHaze.10 mph88%30.04 "Hg2 mi
Weather by CustomWeather, © 2016

See weather overviewHow to use our weather pages